Weather reports worldwide

Advertisment
Milano/Malpensa, Italy (16066): temperature & dewpoint: 10.07.2018 18:00:00 - 16.07.2018 18:00:00 (CEST)Milano/Malpensa, Italy (16066): wind speed: 10.07.2018 18:00:00 - 16.07.2018 18:00:00 (CEST)Milano/Malpensa, Italy (16066): wind direction: 10.07.2018 18:00:00 - 16.07.2018 18:00:00 (CEST)Milano/Malpensa, Italy (16066): reduced air pressure: 10.07.2018 18:00:00 - 16.07.2018 18:00:00 (CEST)Milano/Malpensa, Italy (16066): visibility: 10.07.2018 18:00:00 - 16.07.2018 18:00:00 (CEST)Milano/Malpensa, Italy (16066): precipitation: 10.07.2018 18:00:00 - 16.07.2018 18:00:00 (CEST)
Date & Time tt [°C] td [°C] ff [km/h] ff [kn] dd ppp [hPa] vv [km] rr [mm]
16.07.2018 18:00:00 - - - - - - - -
16.07.2018 17:00:00 - - - - - - - -
16.07.2018 16:00:00 25,0 19,0 22 12 S - 10 -
16.07.2018 15:00:00 27,0 17,0 9 5 S - 10 -
16.07.2018 14:00:00 28,0 17,3 8 4 - 1011,9 10 -
16.07.2018 13:00:00 27,0 17,0 4 2 - - 10 -
16.07.2018 12:00:00 25,0 17,0 5 3 SE - 10 -
16.07.2018 11:00:00 24,5 16,6 8 4 NE 1013,7 10 0,0
16.07.2018 10:00:00 23,0 17,0 13 7 E - 10 -
16.07.2018 09:00:00 21,0 18,0 11 6 ENE - 10 -
16.07.2018 08:00:00 20,5 17,4 13 7 ENE 1014,4 10 -
16.07.2018 07:00:00 22,0 18,0 9 5 ESE - 10 -
16.07.2018 06:00:00 21,0 17,0 13 7 ENE - 10 -
16.07.2018 05:00:00 20,9 15,0 9 5 ENE 1013,3 10 0,0
16.07.2018 04:00:00 20,0 16,0 8 4 NNE - 10 -
16.07.2018 03:00:00 22,0 17,0 8 4 N - 10 -
16.07.2018 02:00:00 22,7 18,1 8 4 N 1013,9 10 -
16.07.2018 01:00:00 23,0 19,0 8 4 NNE - 10 -
16.07.2018 00:00:00 24,0 20,0 9 5 N - 10 -
15.07.2018 23:00:00 24,8 19,3 4 2 NE 1013,3 10 0,0
15.07.2018 22:00:00 25,0 19,0 8 4 N - 10 -
15.07.2018 21:00:00 27,0 18,0 4 2 - - 10 -
15.07.2018 20:00:00 27,2 18,5 15 8 SW 1012,0 10 -
15.07.2018 19:00:00 29,0 18,0 11 6 W - 10 -
15.07.2018 18:00:00 30,0 16,0 8 4 - - 10 -
15.07.2018 17:00:00 29,3 16,9 11 6 W 1013,2 10 0,0
15.07.2018 16:00:00 29,0 18,0 13 7 SW - 10 -
15.07.2018 15:00:00 29,0 16,0 5 3 - - 10 -
15.07.2018 14:00:00 29,0 15,1 5 3 - 1014,8 10 -
15.07.2018 13:00:00 27,0 18,0 9 5 SW - 10 -
15.07.2018 12:00:00 27,0 17,0 8 4 SE - 10 -
15.07.2018 11:00:00 26,2 17,4 4 2 - 1016,0 10 0,0
15.07.2018 10:00:00 24,0 17,0 5 3 E - 10 -
15.07.2018 09:00:00 23,0 18,0 8 4 NNE - 10 -
15.07.2018 08:00:00 20,6 17,7 16 9 N 1016,1 10 -
15.07.2018 07:00:00 18,0 17,0 9 5 NNE - 10 -
15.07.2018 06:00:00 17,0 16,0 11 6 N - 10 -
15.07.2018 05:00:00 17,5 16,3 13 7 N 1015,5 10 0,0
15.07.2018 04:00:00 18,0 16,0 11 6 N - 10 -
15.07.2018 03:00:00 19,0 17,0 18 10 N - 10 -
15.07.2018 02:00:00 19,2 17,2 8 4 ENE 1016,3 10 -
15.07.2018 01:00:00 21,0 16,0 26 14 NNW - 10 -
15.07.2018 00:00:00 23,0 18,0 11 6 NNW - 10 -
14.07.2018 23:00:00 24,4 17,8 13 7 NW 1016,5 10 0,0
14.07.2018 22:00:00 24,0 19,0 2 1 - - 10 -
14.07.2018 21:00:00 25,0 19,0 5 3 NE - 10 -
14.07.2018 20:00:00 26,7 17,4 8 4 NNW 1015,4 10 -
14.07.2018 19:00:00 27,0 20,0 8 4 W - 10 -
14.07.2018 18:00:00 26,0 21,0 4 2 - - 9 -
14.07.2018 17:00:00 26,3 20,0 26 14 W 1016,9 8 0,0
14.07.2018 16:00:00 31,0 18,0 13 7 W - 10 -
14.07.2018 15:00:00 30,0 18,0 4 2 - - 10 -
14.07.2018 14:00:00 29,3 17,4 8 4 W 1017,0 10 -
14.07.2018 13:00:00 29,0 18,0 8 4 SSE - 10 -
14.07.2018 12:00:00 27,0 19,0 9 5 WSW - 10 -
14.07.2018 11:00:00 27,4 18,3 8 4 - 1018,7 10 0,0
14.07.2018 10:00:00 26,0 18,0 8 4 E - 10 -
14.07.2018 09:00:00 23,0 18,0 9 5 NNE - 10 -
14.07.2018 08:00:00 22,0 18,7 8 4 N 1019,2 10 -
14.07.2018 07:00:00 21,0 18,0 13 7 N - 10 -
14.07.2018 06:00:00 21,0 18,0 15 8 N - 10 -
14.07.2018 05:00:00 20,6 17,4 11 6 N 1018,4 10 0,0
14.07.2018 04:00:00 20,0 18,0 13 7 NNE - 10 -
14.07.2018 03:00:00 20,0 17,0 13 7 N - 10 -
14.07.2018 02:00:00 20,2 17,6 9 5 N 1018,1 10 -
14.07.2018 01:00:00 20,0 18,0 5 3 NNE - 10 -
14.07.2018 00:00:00 21,0 17,0 5 3 NE - 10 -
13.07.2018 23:00:00 21,6 17,1 4 2 N 1017,5 10 0,0
13.07.2018 22:00:00 24,0 17,0 2 1 - - 10 -
13.07.2018 21:00:00 28,0 14,0 8 4 W - 10 -
13.07.2018 20:00:00 28,1 17,1 8 4 WSW 1016,5 10 -
13.07.2018 19:00:00 29,0 15,0 13 7 WSW - 10 -
13.07.2018 18:00:00 29,0 17,0 16 9 WSW - 10 -
13.07.2018 17:00:00 29,4 17,2 11 6 SW 1016,6 10 0,0
13.07.2018 16:00:00 30,0 17,0 15 8 SW - 10 -
13.07.2018 15:00:00 29,0 18,0 13 7 WSW - 10 -
13.07.2018 14:00:00 28,9 18,5 15 8 SW 1017,6 10 -
13.07.2018 13:00:00 26,0 19,0 8 4 ESE - 10 -
13.07.2018 12:00:00 26,0 19,0 4 2 - - 10 -
13.07.2018 11:00:00 26,2 18,8 8 4 S 1018,3 10 0,0
13.07.2018 10:00:00 24,0 19,0 5 3 - - 10 -
13.07.2018 09:00:00 23,0 18,0 5 3 NNE - 10 -
13.07.2018 08:00:00 21,9 18,9 5 3 NNE 1017,9 10 -
13.07.2018 07:00:00 19,0 18,0 9 5 N - 10 -
13.07.2018 06:00:00 19,0 18,0 13 7 N - 8 -
13.07.2018 05:00:00 19,0 17,7 9 5 N 1017,1 8 0,0
13.07.2018 04:00:00 20,0 19,0 9 5 N - 10 -
13.07.2018 03:00:00 20,0 18,0 9 5 NNE - 10 -
13.07.2018 02:00:00 20,3 18,2 4 2 - 1016,6 10 -
13.07.2018 01:00:00 21,0 18,0 2 1 - - 10 -
13.07.2018 00:00:00 22,0 18,0 5 3 ENE - 10 -
12.07.2018 23:00:00 23,3 18,1 5 3 WSW 1015,9 10 0,0
12.07.2018 22:00:00 25,0 18,0 11 6 WNW - 10 -
12.07.2018 21:00:00 25,0 18,0 11 6 W - 10 -
12.07.2018 20:00:00 25,9 17,7 9 5 SSW 1014,4 10 -
12.07.2018 19:00:00 27,0 18,0 5 3 S - 10 -
12.07.2018 18:00:00 27,0 17,0 5 3 SSW - 10 -
12.07.2018 17:00:00 26,8 17,6 9 5 SSW 1014,8 10 0,0
12.07.2018 16:00:00 27,0 17,0 11 6 SSW - 10 -
12.07.2018 15:00:00 27,0 17,0 11 6 S - 10 -
12.07.2018 14:00:00 26,1 17,1 11 6 S 1015,6 10 -
12.07.2018 13:00:00 25,0 18,0 15 8 SE - 10 -
12.07.2018 12:00:00 24,0 19,0 13 7 ESE - 10 -
12.07.2018 11:00:00 22,6 17,9 13 7 ESE 1015,7 10 0,0
12.07.2018 10:00:00 22,0 17,0 11 6 E - 10 -
12.07.2018 09:00:00 22,0 18,0 11 6 E - 8 -
12.07.2018 08:00:00 21,3 17,8 8 4 ENE 1015,1 8 -
12.07.2018 07:00:00 21,0 18,0 8 4 E - 10 -
12.07.2018 06:00:00 21,0 18,0 9 5 E - 8 -
12.07.2018 05:00:00 20,6 18,3 8 4 E 1014,3 7 0,0
12.07.2018 04:00:00 21,0 18,0 8 4 E - 7 -
12.07.2018 03:00:00 21,0 18,0 8 4 E - 7 -
12.07.2018 02:00:00 20,8 18,1 4 2 - 1014,3 10 -
12.07.2018 01:00:00 20,0 18,0 11 6 SE - 10 -
12.07.2018 00:00:00 21,0 18,0 5 3 SSE - 10 -
11.07.2018 23:00:00 21,0 17,9 8 4 S 1013,6 10 0,0
11.07.2018 22:00:00 22,0 18,0 8 4 S - 10 -
11.07.2018 21:00:00 24,0 17,0 8 4 S - 10 -
11.07.2018 20:00:00 24,9 17,2 9 5 S 1011,6 10 -
11.07.2018 19:00:00 26,0 17,0 11 6 S - 10 -
11.07.2018 18:00:00 26,0 17,0 13 7 SE - 10 -
11.07.2018 17:00:00 25,5 16,4 11 6 SE 1011,5 10 0,0
11.07.2018 16:00:00 26,0 16,0 15 8 SE - 10 -
11.07.2018 15:00:00 26,0 17,0 13 7 SSE - 10 -
11.07.2018 14:00:00 24,8 16,4 18 10 SE 1012,1 10 -
11.07.2018 13:00:00 25,0 17,0 15 8 SE - 10 -
11.07.2018 12:00:00 24,0 17,0 15 8 SE - 10 -
11.07.2018 11:00:00 22,3 17,1 15 8 ESE 1012,5 10 0,0
11.07.2018 10:00:00 21,0 17,0 13 7 SE - 10 -
11.07.2018 09:00:00 21,0 18,0 13 7 E - 10 -
11.07.2018 08:00:00 19,9 17,9 16 9 ESE 1012,2 10 -
11.07.2018 07:00:00 20,0 18,0 15 8 SE - 6 -
11.07.2018 06:00:00 20,0 19,0 16 9 E - 4,0 -
11.07.2018 05:00:00 20,7 18,6 11 6 E 1011,1 10 0,0
11.07.2018 04:00:00 22,0 18,0 15 8 E - 10 -
11.07.2018 03:00:00 22,0 18,0 9 5 E - 10 -
11.07.2018 02:00:00 22,3 16,7 9 5 SE 1011,1 10 -
11.07.2018 01:00:00 23,0 17,0 9 5 ENE - 10 -
11.07.2018 00:00:00 24,0 17,0 16 9 SW - 10 -
10.07.2018 23:00:00 24,8 17,0 15 8 SSW 1010,6 10 0,0
10.07.2018 22:00:00 25,0 17,0 8 4 S - 10 -
10.07.2018 21:00:00 27,0 18,0 8 4 SSW - 10 -
10.07.2018 20:00:00 27,7 17,2 8 4 S 1010,0 10 -
10.07.2018 19:00:00 28,0 17,0 9 5 SSW - 10 -
10.07.2018 18:00:00 29,0 16,0 5 3 - - 10 -

tt = temperature
td = dewpoint
ff = wind speed
dd = wind direction
ppp = reduced air pressure
vv = visibility
rr = precipitation

Next stations